This is the latest recevied weather packets stored in our database for station/object KB1WCR. If no packets are shown the sender has not sent any weather packets the latest 10 day(s).
| Time | Temp. | Humidity | Pressure | Rain* | Wind** | Luminosity | Snow |
|---|---|---|---|---|---|---|---|
| 1778093811 | 15° C | 94% | 1006.8 hPa | 3.05 mm | - | 48 W/m² | - |
| 1778093507 | 15° C | 92% | 1006.6 hPa | 1.78 mm | - | 62 W/m² | - |
| 1778093205 | 15.56° C | 90% | 1006.5 hPa | 1.78 mm | - | 48 W/m² | - |
| 1778092902 | 15.56° C | 90% | 1006.4 hPa | 3.05 mm | - | 81 W/m² | - |
| 1778092598 | 15.56° C | 88% | 1006.3 hPa | 1.27 mm | - | 68 W/m² | - |
| 1778092294 | 16.11° C | 88% | 1006.3 hPa | 0 mm | - | 77 W/m² | - |
| 1778091992 | 16.11° C | 86% | 1006.2 hPa | 0 mm | - | 58 W/m² | - |
| 1778091688 | 16.67° C | 84% | 1006.4 hPa | 0 mm | - | 66 W/m² | - |
| 1778091387 | 16.67° C | 81% | 1006.3 hPa | 0 mm | - | 68 W/m² | - |
| 1778091084 | 16.67° C | 82% | 1006.2 hPa | 0 mm | - | 75 W/m² | - |
| 1778090780 | 16.67° C | 80% | 1006.3 hPa | 0 mm | - | 85 W/m² | - |
| 1778090477 | 17.22° C | 81% | 1006.2 hPa | 0 mm | - | 95 W/m² | - |
| 1778090173 | 17.22° C | 80% | 1006.2 hPa | 0 mm | - | 153 W/m² | - |
| 1778089869 | 17.78° C | 80% | 1006.1 hPa | 0 mm | - | 176 W/m² | - |
| 1778089568 | 17.78° C | 81% | 1006.3 hPa | 0 mm | - | 201 W/m² | - |
| 1778089264 | 18.33° C | 78% | 1006.3 hPa | 0 mm | - | 244 W/m² | - |
| 1778088962 | 18.33° C | 79% | 1006.2 hPa | 0 mm | - | 443 W/m² | - |
| 1778088659 | 18.33° C | 79% | 1006.3 hPa | 0 mm | - | 419 W/m² | - |
| 1778088355 | 17.78° C | 80% | 1006.6 hPa | 0 mm | - | 335 W/m² | - |
| 1778088046 | 17.78° C | 81% | 1006.5 hPa | 0 mm | - | 261 W/m² | - |
| 1778087743 | 17.78° C | 81% | 1006.8 hPa | 0 mm | - | 275 W/m² | - |
| 1778087440 | 17.78° C | 81% | 1006.8 hPa | 0 mm | - | 237 W/m² | - |
| 1778087138 | 17.78° C | 83% | 1006.9 hPa | 0 mm | - | 240 W/m² | - |
| 1778086830 | 17.78° C | 81% | 1007.1 hPa | 0 mm | - | 247 W/m² | - |
| 1778086528 | 17.78° C | 81% | 1007.2 hPa | 0 mm | - | 200 W/m² | - |
* Rain latest hour (hover to see other rain measurements)
** Current wind speed in m/s (hover to see current wind gust speed)